Etusivu
METAR-TAF:

METAR-TAF

Lentoasemat :

Alamogordo, New Mexico, Yhdysvallat

Leveyspiiri: 32-50N, Pituuspiiri: 105-59W, korkeus merenpinnasta: 1279 m

Tämänhetkinen sää

Tämä raportti tehtiin 23 minuuttia sitten, kello 02.15 UTC
Tuuli 11 kn etelästä/kaakosta
Lämpötila 14°C
Kosteus 38%
Ilmanpaine 1011 hPa
Näkyvyys: 16.1 km
selkeää

METAR: KALM 150215Z AUTO 16011KT 10SM CLR 14/00 A2985 RMK AO2

Aika: 19:38 (02:38 UTC)


TAF: puuttuu

Säähavainnot ja -ennusteet yli 4000 lentoasemalta (METAR- ja TAF-raportit).

Käytössä olevat sääasemat on merkitty karttaan keltaisilla ja punaisilla pisteillä.

Aseta hiiri pisteen päälle nähdäksesi sääaseman nimen.

Klikkaa sitten nähdäksesi säähavainnot ja -ennusteet.

Kartan vaihtaminen: klikkaa mustalla rastilla varustettuja vihreitä pisteitä, niin voit zoomata sisään; viivalla varustettua vihreää pistettä, niin voit zoomata ulos tai vihreitä nuolia, niin pääset viereisille kartoille.


METAR-TAF: